Weather History for Craig, CO

Change the Weather History Date:

Wednesday, May 15, 2013

  Actual Average Record
Temperature  
Mean Temperature 61 °F 50 °F  
Max Temperature 76 °F 67 °F 83 °F (2012)
Min Temperature 46 °F 34 °F 29 °F (2012)
Degree Days  
Heating Degree Days 4 15  
Month to date heating degree days 210 251  
Since 1 July heating degree days 8344 8263  
Cooling Degree Days 0 0  
Month to date cooling degree days 0 0  
Year to date cooling degree days 0 0  
Growing Degree Days 13 (Base 50)    
Moisture  
Dew Point 38 °F    
Average Humidity 47    
Maximum Humidity 71    
Minimum Humidity 23    
Precipitation  
Precipitation T in 0.05 in 0.54 in (2003)
Month to date precipitation 0.26 0.81  
Year to date precipitation 4.20 5.46  
Sea Level Pressure  
Sea Level Pressure 29.84 in    
Wind  
Wind Speed 10 mph (SE)    
Max Wind Speed 35 mph    
Max Gust Speed 41 mph    
Visibility 10 miles    
Events      
T = Trace of Precipitation, MM = Missing Value Source: NWS Daily Summary

Daily Weather History Graph

Daily Weather History Graph

Search for Another Location

Airport:

Trip Planner

Search our weather history database for the weather conditions in past years. The results will help you decide how hot, cold, wet, or windy it might be!

Date:

Astronomy

May. 15, 2013 Rise Set
Actual Time 5:53 AM MDT 8:20 PM MDT
Civil Twilight 5:22 AM MDT 8:51 PM MDT
Nautical Twilight 4:43 AM MDT 9:29 PM MDT
Astronomical Twilight 4:01 AM MDT 10:12 PM MDT
Moon 10:31 AM MDT (5/15) 12:08 AM MDT (5/15)
Length of Visible Light 15h 28m
Length of Day
14h 26m
Waxing Crescent, 27% of the Moon is Illuminated
May 15
Waxing Crescent
May 17
First Quarter
May 24
Full
May 31
Last Quarter
Jun 8
New

Hourly Weather History & Observations

Time (MDT) Temp. Dew Point Humidity Pressure Visibility Wind Dir Wind Speed Gust Speed Precip Events Conditions
12:53 AM 57.0 °F 36.0 °F 45% 29.84 in 10.0 mi SE 8.1 mph - N/A   Clear
1:53 AM 54.0 °F 37.0 °F 53% 29.86 in 10.0 mi South 9.2 mph - N/A   Scattered Clouds
2:53 AM 51.1 °F 37.9 °F 61% 29.88 in 10.0 mi ESE 3.5 mph - N/A   Scattered Clouds
3:53 AM 46.9 °F 37.0 °F 68% 29.88 in 10.0 mi South 3.5 mph - N/A   Clear
4:53 AM 51.1 °F 37.0 °F 59% 29.87 in 10.0 mi East 5.8 mph - N/A   Clear
5:53 AM 53.1 °F 37.0 °F 55% 29.87 in 10.0 mi ENE 10.4 mph - N/A   Clear
6:53 AM 53.1 °F 37.0 °F 55% 29.88 in 10.0 mi ENE 6.9 mph - N/A   Clear
7:53 AM 57.9 °F 39.0 °F 49% 29.88 in 10.0 mi ENE 12.7 mph - N/A   Clear
8:53 AM 61.0 °F 37.9 °F 42% 29.88 in 10.0 mi East 12.7 mph - N/A   Clear
9:53 AM 64.9 °F 39.0 °F 39% 29.87 in 10.0 mi ENE 11.5 mph - N/A   Mostly Cloudy
10:53 AM 69.1 °F 41.0 °F 36% 29.87 in 10.0 mi NNW 3.5 mph - N/A   Mostly Cloudy
11:53 AM 75.0 °F 37.0 °F 25% 29.82 in 10.0 mi Variable 3.5 mph - N/A   Clear
12:53 PM 75.0 °F 35.1 °F 23% 29.81 in 10.0 mi East 10.4 mph - N/A   Clear
1:53 PM 71.1 °F 34.0 °F 26% 29.81 in 10.0 mi South 15.0 mph - N/A   Clear
2:53 PM 73.9 °F 36.0 °F 25% 29.79 in 10.0 mi South 12.7 mph - N/A   Partly Cloudy
3:53 PM 71.1 °F 35.1 °F 27% 29.83 in 10.0 mi SW 16.1 mph 23.0 mph N/A   Partly Cloudy
4:53 PM 66.0 °F 34.0 °F 30% 29.83 in 10.0 mi South 26.5 mph 40.3 mph N/A   Overcast
5:53 PM 66.0 °F 35.1 °F 32% 29.80 in 10.0 mi South 15.0 mph - N/A   Partly Cloudy
6:53 PM 69.1 °F 36.0 °F 30% 29.78 in 10.0 mi ENE 10.4 mph - N/A   Clear
7:53 PM 62.1 °F 42.1 °F 48% 29.80 in 10.0 mi East 11.5 mph - N/A   Clear
8:53 PM 59.0 °F 41.0 °F 51% 29.81 in 10.0 mi ESE 9.2 mph - N/A   Clear
9:53 PM 61.0 °F 41.0 °F 48% 29.83 in 10.0 mi SE 5.8 mph - N/A   Mostly Cloudy
10:53 PM 57.9 °F 41.0 °F 53% 29.85 in 10.0 mi SSW 15.0 mph 24.2 mph 0.00 in   Mostly Cloudy
11:53 PM 55.0 °F 41.0 °F 59% 29.81 in 10.0 mi SSE 6.9 mph - N/A   Partly Cloudy